LGX43B LIMJ-LICJ

Flight info

Callsign LGX43B
Flight time 1h 15m
Altitude 37000
Route UNITA L50 KONER DCT ELB DCT TINTO DCT POKAV DCT GIANO
Aircraft A32N/M-SDE2FGHIJ1RWXY/HB1

Departure

Time 2026-04-25 16:52
Airport Genoa Cristoforo Colombo Airport (LIMJ)

Arrival

Time 2026-04-25 18:08
Airport Falcone–Borsellino Airport (LICJ)
Time Latitude Longitude Altitude Speed Heading
2026-04-25 16:49 44.41250 8.85227 18 ft 0 kts 195°
2026-04-25 16:50 44.41244 8.85237 18 ft 5 kts 119°
2026-04-25 16:50 44.41197 8.85266 18 ft 7 kts 184°
2026-04-25 16:50 44.41142 8.85248 18 ft 5 kts 195°
2026-04-25 16:51 44.41130 8.85244 18 ft 11 kts 195°
2026-04-25 16:51 44.41033 8.85200 18 ft 14 kts 207°
2026-04-25 16:51 44.41014 8.85131 18 ft 0 kts 288°
2026-04-25 16:51 44.41015 8.85128 18 ft 0 kts 282°
2026-04-25 16:52 44.41092 8.84704 19 ft 85 kts 285°
2026-04-25 16:52 44.41337 8.83459 19 ft 158 kts 284°
2026-04-25 16:52 44.41651 8.81812 519 ft 175 kts 284°
2026-04-25 16:52 44.41906 8.80176 1275 ft 174 kts 267°
2026-04-25 16:53 44.40324 8.78195 2530 ft 181 kts 174°
2026-04-25 16:53 44.39135 8.78815 3133 ft 189 kts 150°
2026-04-25 16:53 44.37991 8.79687 3887 ft 192 kts 152°
2026-04-25 16:54 44.36795 8.80559 4673 ft 194 kts 152°
2026-04-25 16:54 44.35599 8.81424 5436 ft 196 kts 155°
2026-04-25 16:54 44.34279 8.81871 6155 ft 200 kts 179°
2026-04-25 16:54 44.32904 8.81791 6844 ft 206 kts 185°
2026-04-25 16:55 44.31416 8.81616 7363 ft 225 kts 185°
2026-04-25 16:55 44.29820 8.81447 8095 ft 233 kts 185°
2026-04-25 16:55 44.28212 8.81306 8910 ft 237 kts 185°
2026-04-25 16:55 44.26548 8.81179 9708 ft 242 kts 185°
2026-04-25 16:56 44.24864 8.81061 10481 ft 247 kts 185°
2026-04-25 16:56 44.23156 8.80953 11291 ft 250 kts 185°
2026-04-25 16:56 44.21416 8.80843 12101 ft 252 kts 185°
2026-04-25 16:56 44.19667 8.80733 12881 ft 255 kts 185°
2026-04-25 16:57 44.17844 8.80620 13675 ft 257 kts 186°
2026-04-25 16:57 44.16642 8.80546 14188 ft 259 kts 186°
2026-04-25 16:57 44.14215 8.80484 15174 ft 265 kts 174°
2026-04-25 16:57 44.12489 8.81403 15812 ft 278 kts 148°
2026-04-25 16:58 44.10934 8.83119 16242 ft 294 kts 142°
2026-04-25 16:58 44.09329 8.85067 16590 ft 312 kts 141°
2026-04-25 16:58 44.07651 8.87093 16916 ft 330 kts 142°
2026-04-25 16:58 44.05833 8.89249 17233 ft 347 kts 142°
2026-04-25 16:59 44.03930 8.91480 17535 ft 364 kts 142°
2026-04-25 16:59 44.01963 8.93771 17816 ft 380 kts 142°
2026-04-25 16:59 43.99896 8.96173 18147 ft 393 kts 142°
2026-04-25 16:59 43.97774 8.98637 18710 ft 399 kts 142°
2026-04-25 17:00 43.95650 9.01100 19336 ft 403 kts 142°
2026-04-25 17:00 43.93494 9.03599 19929 ft 407 kts 142°
2026-04-25 17:00 43.91297 9.06146 20488 ft 411 kts 142°
2026-04-25 17:00 43.89111 9.08677 21008 ft 415 kts 142°
2026-04-25 17:01 43.86863 9.11277 21547 ft 418 kts 142°
2026-04-25 17:01 43.84626 9.13861 22066 ft 422 kts 142°
2026-04-25 17:01 43.82365 9.16470 22570 ft 425 kts 141°
2026-04-25 17:01 43.80085 9.19097 23065 ft 429 kts 141°
2026-04-25 17:02 43.77767 9.21769 23555 ft 433 kts 141°
2026-04-25 17:02 43.75440 9.24451 24036 ft 436 kts 141°
2026-04-25 17:02 43.73102 9.27141 24541 ft 438 kts 141°
2026-04-25 17:02 43.71553 9.28924 24915 ft 438 kts 142°
2026-04-25 17:03 43.68435 9.32506 25655 ft 438 kts 142°
2026-04-25 17:03 43.66083 9.35198 26130 ft 439 kts 142°
2026-04-25 17:03 43.63723 9.37896 26546 ft 442 kts 142°
2026-04-25 17:03 43.61357 9.40598 26946 ft 445 kts 141°
2026-04-25 17:04 43.58968 9.43325 27357 ft 447 kts 141°
2026-04-25 17:04 43.56545 9.46088 27784 ft 448 kts 141°
2026-04-25 17:04 43.54178 9.48785 28159 ft 450 kts 141°
2026-04-25 17:04 43.51752 9.51546 28500 ft 452 kts 141°
2026-04-25 17:05 43.49340 9.54290 28817 ft 454 kts 141°
2026-04-25 17:05 43.44438 9.59864 29412 ft 458 kts 141°
2026-04-25 17:05 43.41979 9.62655 29684 ft 460 kts 141°
2026-04-25 17:06 43.39511 9.65450 29941 ft 462 kts 142°
2026-04-25 17:06 43.37044 9.68243 30186 ft 464 kts 142°
2026-04-25 17:06 43.34556 9.71057 30495 ft 463 kts 142°
2026-04-25 17:06 43.32048 9.73889 30837 ft 462 kts 142°
2026-04-25 17:07 43.29600 9.76650 31156 ft 461 kts 142°
2026-04-25 17:07 43.27122 9.79443 31475 ft 460 kts 142°
2026-04-25 17:07 43.24672 9.82200 31776 ft 459 kts 142°
2026-04-25 17:07 43.22203 9.84967 32085 ft 458 kts 141°
2026-04-25 17:08 43.19738 9.87732 32414 ft 456 kts 141°
2026-04-25 17:08 43.17309 9.90459 32709 ft 455 kts 141°
2026-04-25 17:08 43.14871 9.93192 32978 ft 454 kts 141°
2026-04-25 17:08 43.12432 9.95922 33238 ft 454 kts 141°
2026-04-25 17:09 43.09985 9.98659 33496 ft 453 kts 141°
2026-04-25 17:09 43.07549 10.01379 33749 ft 453 kts 141°
2026-04-25 17:09 43.05136 10.04071 33995 ft 452 kts 141°
2026-04-25 17:09 43.02709 10.06775 34237 ft 452 kts 141°
2026-04-25 17:10 43.01087 10.08581 34396 ft 451 kts 141°
2026-04-25 17:10 42.97850 10.12181 34719 ft 450 kts 141°
2026-04-25 17:10 42.95409 10.14893 34972 ft 449 kts 141°
2026-04-25 17:10 42.92999 10.17567 35219 ft 448 kts 141°
2026-04-25 17:11 42.90597 10.20229 35437 ft 447 kts 141°
2026-04-25 17:11 42.88178 10.22907 35615 ft 447 kts 141°
2026-04-25 17:11 42.85780 10.25559 35773 ft 448 kts 142°
2026-04-25 17:11 42.83377 10.28214 35936 ft 448 kts 142°
2026-04-25 17:12 42.80980 10.30860 36126 ft 447 kts 142°
2026-04-25 17:12 42.78529 10.33535 36297 ft 446 kts 143°
2026-04-25 17:12 42.76023 10.36028 36423 ft 446 kts 146°
2026-04-25 17:12 42.73412 10.38325 36533 ft 446 kts 149°
2026-04-25 17:13 42.70707 10.40410 36638 ft 447 kts 152°
2026-04-25 17:13 42.68861 10.41683 36718 ft 447 kts 154°
2026-04-25 17:13 42.65078 10.43938 36886 ft 447 kts 158°
2026-04-25 17:13 42.62194 10.45507 37001 ft 447 kts 158°
2026-04-25 17:14 42.56440 10.48639 37058 ft 448 kts 158°
2026-04-25 17:14 42.50687 10.51771 37061 ft 448 kts 158°
2026-04-25 17:15 42.44915 10.54908 37062 ft 448 kts 158°
2026-04-25 17:15 42.39145 10.58039 37062 ft 448 kts 158°
2026-04-25 17:16 42.33343 10.61180 37062 ft 448 kts 158°
2026-04-25 17:16 42.27558 10.64306 37062 ft 448 kts 158°
2026-04-25 17:17 42.21806 10.67405 37062 ft 447 kts 158°
2026-04-25 17:17 42.16042 10.70504 37061 ft 448 kts 158°
2026-04-25 17:18 42.10238 10.73623 37061 ft 449 kts 158°
2026-04-25 17:18 42.04450 10.76727 37063 ft 449 kts 158°
2026-04-25 17:19 41.98671 10.79821 37062 ft 448 kts 158°
2026-04-25 17:19 41.92858 10.82926 37062 ft 447 kts 158°
2026-04-25 17:20 41.87104 10.85993 37062 ft 447 kts 158°
2026-04-25 17:20 41.81313 10.89073 37062 ft 447 kts 158°
2026-04-25 17:21 41.75519 10.92150 37062 ft 447 kts 158°
2026-04-25 17:21 41.69748 10.95202 37059 ft 450 kts 157°
2026-04-25 17:22 41.64885 10.97776 37061 ft 452 kts 157°
2026-04-25 17:22 41.58078 11.01372 37061 ft 453 kts 157°
2026-04-25 17:23 41.52218 11.04458 37061 ft 453 kts 157°
2026-04-25 17:23 41.46358 11.07539 37061 ft 454 kts 157°
2026-04-25 17:24 41.40514 11.10606 37062 ft 454 kts 157°
2026-04-25 17:24 41.34615 11.13694 37062 ft 454 kts 157°
2026-04-25 17:25 41.28759 11.16755 37062 ft 454 kts 157°
2026-04-25 17:25 41.22910 11.19806 37062 ft 454 kts 157°
2026-04-25 17:26 41.17033 11.22866 37062 ft 454 kts 157°
2026-04-25 17:26 41.11159 11.25918 37061 ft 454 kts 157°
2026-04-25 17:27 41.05298 11.28958 37062 ft 454 kts 157°
2026-04-25 17:27 41.00446 11.31469 37062 ft 454 kts 157°
2026-04-25 17:28 40.93606 11.35002 37062 ft 453 kts 157°
2026-04-25 17:28 40.87736 11.38028 37062 ft 452 kts 157°
2026-04-25 17:29 40.81892 11.41069 37062 ft 452 kts 156°
2026-04-25 17:29 40.76096 11.44249 37062 ft 452 kts 156°
2026-04-25 17:30 40.70342 11.47417 37061 ft 452 kts 156°
2026-04-25 17:30 40.64539 11.50590 37061 ft 453 kts 156°
2026-04-25 17:31 40.58744 11.53747 37061 ft 453 kts 156°
2026-04-25 17:31 40.52941 11.56902 37062 ft 453 kts 156°
2026-04-25 17:32 40.47097 11.60073 37062 ft 453 kts 156°
2026-04-25 17:32 40.41274 11.63227 37062 ft 453 kts 156°
2026-04-25 17:33 40.35468 11.66366 37062 ft 453 kts 157°
2026-04-25 17:33 40.29641 11.69510 37062 ft 453 kts 157°
2026-04-25 17:34 40.23834 11.72638 37062 ft 453 kts 157°
2026-04-25 17:34 40.18007 11.75773 37060 ft 453 kts 157°
2026-04-25 17:35 40.12203 11.78886 37061 ft 454 kts 157°
2026-04-25 17:35 40.06365 11.82011 37061 ft 455 kts 157°
2026-04-25 17:36 40.00542 11.85124 37061 ft 455 kts 157°
2026-04-25 17:36 39.94669 11.88257 37061 ft 455 kts 157°
2026-04-25 17:37 39.88847 11.91359 37061 ft 456 kts 157°
2026-04-25 17:37 39.82876 11.94533 37062 ft 456 kts 157°
2026-04-25 17:38 39.77994 11.97124 37072 ft 456 kts 157°
2026-04-25 17:38 39.71149 12.00749 37066 ft 455 kts 157°
2026-04-25 17:39 39.68252 12.02281 36832 ft 451 kts 157°
2026-04-25 17:39 39.65367 12.03806 36261 ft 450 kts 157°
2026-04-25 17:39 39.62447 12.05347 35636 ft 449 kts 157°
2026-04-25 17:39 39.59590 12.06868 35117 ft 445 kts 158°
2026-04-25 17:40 39.56741 12.08371 34593 ft 441 kts 158°
2026-04-25 17:40 39.53917 12.09854 33990 ft 440 kts 158°
2026-04-25 17:40 39.51091 12.11337 33316 ft 440 kts 158°
2026-04-25 17:40 39.48273 12.12815 32598 ft 440 kts 158°
2026-04-25 17:41 39.45447 12.14296 31851 ft 442 kts 158°
2026-04-25 17:41 39.42143 12.16028 30946 ft 443 kts 158°
2026-04-25 17:41 39.38910 12.17721 30030 ft 445 kts 157°
2026-04-25 17:41 39.35624 12.19443 29215 ft 443 kts 157°
2026-04-25 17:42 39.32365 12.21149 28605 ft 437 kts 157°
2026-04-25 17:42 39.29156 12.22828 27976 ft 433 kts 157°
2026-04-25 17:42 39.25909 12.24524 27317 ft 428 kts 157°
2026-04-25 17:42 39.22758 12.26167 26676 ft 425 kts 157°
2026-04-25 17:43 39.19574 12.27825 25992 ft 421 kts 157°
2026-04-25 17:43 39.16783 12.29279 25380 ft 419 kts 157°
2026-04-25 17:43 39.14115 12.30667 24793 ft 417 kts 157°
2026-04-25 17:43 39.11428 12.32064 24194 ft 415 kts 158°
2026-04-25 17:44 39.08780 12.33439 23620 ft 412 kts 158°
2026-04-25 17:44 39.06001 12.34880 23038 ft 409 kts 157°
2026-04-25 17:44 39.02980 12.36444 22405 ft 406 kts 157°
2026-04-25 17:44 39.00023 12.37975 21786 ft 402 kts 157°
2026-04-25 17:45 38.97057 12.39509 21162 ft 399 kts 157°
2026-04-25 17:45 38.95174 12.40482 20764 ft 397 kts 157°
2026-04-25 17:45 38.91799 12.42226 20016 ft 394 kts 157°
2026-04-25 17:45 38.89286 12.43592 19438 ft 392 kts 151°
2026-04-25 17:46 38.87093 12.45576 18858 ft 388 kts 135°
2026-04-25 17:46 38.85411 12.48281 18315 ft 383 kts 119°
2026-04-25 17:46 38.84123 12.51295 17805 ft 379 kts 116°
2026-04-25 17:46 38.82860 12.54430 17242 ft 377 kts 116°
2026-04-25 17:47 38.81529 12.57735 16657 ft 374 kts 116°
2026-04-25 17:47 38.80196 12.61015 16060 ft 365 kts 116°
2026-04-25 17:47 38.78956 12.64045 15044 ft 360 kts 117°
2026-04-25 17:47 38.77677 12.67154 13873 ft 372 kts 117°
2026-04-25 17:48 38.75094 12.73398 13071 ft 356 kts 117°
2026-04-25 17:48 38.73883 12.76311 12528 ft 354 kts 117°
2026-04-25 17:48 38.72723 12.79104 11977 ft 353 kts 117°
2026-04-25 17:49 38.71570 12.81881 11446 ft 351 kts 117°
2026-04-25 17:49 38.70358 12.84795 10950 ft 348 kts 117°
2026-04-25 17:49 38.69101 12.87818 10415 ft 345 kts 117°
2026-04-25 17:49 38.67843 12.90835 9855 ft 343 kts 117°
2026-04-25 17:50 38.66642 12.93711 9484 ft 335 kts 117°
2026-04-25 17:50 38.65431 12.96609 9256 ft 320 kts 117°
2026-04-25 17:50 38.64274 12.99373 8861 ft 299 kts 117°
2026-04-25 17:50 38.63216 13.01898 8406 ft 284 kts 117°
2026-04-25 17:51 38.62170 13.04398 7942 ft 283 kts 117°
2026-04-25 17:51 38.61130 13.06881 7613 ft 278 kts 117°
2026-04-25 17:51 38.60130 13.09268 7311 ft 274 kts 117°
2026-04-25 17:51 38.59195 13.11494 7183 ft 272 kts 117°
2026-04-25 17:52 38.58271 13.13694 7054 ft 273 kts 117°
2026-04-25 17:52 38.57638 13.15202 6967 ft 272 kts 117°
2026-04-25 17:52 38.56431 13.18070 6705 ft 262 kts 117°
2026-04-25 17:52 38.55485 13.20318 6498 ft 251 kts 117°
2026-04-25 17:53 38.54361 13.22281 6352 ft 246 kts 140°
2026-04-25 17:53 38.52730 13.23461 6193 ft 241 kts 155°
2026-04-25 17:53 38.51211 13.24257 5997 ft 234 kts 156°
2026-04-25 17:53 38.49713 13.25018 5848 ft 227 kts 156°
2026-04-25 17:54 38.48254 13.25775 5731 ft 225 kts 156°
2026-04-25 17:54 38.46769 13.26295 5670 ft 228 kts 178°
2026-04-25 17:54 38.45265 13.25719 5534 ft 231 kts 214°
2026-04-25 17:54 38.44262 13.24102 5404 ft 232 kts 245°
2026-04-25 17:55 38.43589 13.21989 5269 ft 232 kts 249°
2026-04-25 17:55 38.42879 13.19808 5088 ft 231 kts 238°
2026-04-25 17:55 38.41602 13.18506 4986 ft 226 kts 195°
2026-04-25 17:55 38.40064 13.18521 4992 ft 223 kts 161°
2026-04-25 17:56 38.38638 13.19268 5008 ft 222 kts 154°
2026-04-25 17:56 38.37228 13.20086 4995 ft 222 kts 154°
2026-04-25 17:56 38.35828 13.20884 4991 ft 222 kts 154°
2026-04-25 17:56 38.34446 13.21868 4971 ft 221 kts 135°
2026-04-25 17:57 38.33696 13.23689 4975 ft 218 kts 97°
2026-04-25 17:57 38.33929 13.25671 4991 ft 197 kts 69°
2026-04-25 17:57 38.34528 13.27443 5014 ft 188 kts 65°
2026-04-25 17:57 38.34933 13.28587 5003 ft 188 kts 65°
2026-04-25 17:58 38.35748 13.30931 4996 ft 187 kts 66°
2026-04-25 17:58 38.36336 13.32664 4989 ft 186 kts 66°
2026-04-25 17:58 38.36925 13.34416 4986 ft 187 kts 66°
2026-04-25 17:58 38.37516 13.36179 4992 ft 187 kts 66°
2026-04-25 17:59 38.38093 13.37908 4994 ft 187 kts 66°
2026-04-25 17:59 38.38598 13.39705 4986 ft 186 kts 82°
2026-04-25 17:59 38.38385 13.41453 5012 ft 175 kts 114°
2026-04-25 17:59 38.37529 13.42707 4997 ft 175 kts 145°
2026-04-25 18:00 38.36296 13.43378 5004 ft 177 kts 160°
2026-04-25 18:00 38.34995 13.43890 4998 ft 177 kts 161°
2026-04-25 18:00 38.33731 13.44377 4996 ft 177 kts 161°
2026-04-25 18:00 38.32386 13.44912 4775 ft 177 kts 160°
2026-04-25 18:01 38.31128 13.45239 4497 ft 177 kts 181°
2026-04-25 18:01 38.29897 13.44557 4211 ft 178 kts 222°
2026-04-25 18:01 38.29105 13.43267 3969 ft 172 kts 239°
2026-04-25 18:01 38.28558 13.41850 3688 ft 164 kts 248°
2026-04-25 18:02 38.28086 13.40345 3398 ft 161 kts 249°
2026-04-25 18:02 38.27631 13.38880 3122 ft 161 kts 249°
2026-04-25 18:02 38.27182 13.37480 2995 ft 160 kts 248°
2026-04-25 18:02 38.26707 13.36037 2993 ft 161 kts 248°
2026-04-25 18:03 38.26250 13.34679 2990 ft 161 kts 247°
2026-04-25 18:03 38.25753 13.33217 2989 ft 161 kts 247°
2026-04-25 18:03 38.25284 13.31848 2988 ft 161 kts 247°
2026-04-25 18:03 38.24960 13.30902 2988 ft 161 kts 247°
2026-04-25 18:04 38.24514 13.29599 2966 ft 161 kts 247°
2026-04-25 18:04 38.24217 13.28728 2844 ft 161 kts 248°
2026-04-25 18:04 38.23767 13.27410 2628 ft 160 kts 248°
2026-04-25 18:04 38.23323 13.26106 2419 ft 159 kts 248°
2026-04-25 18:05 38.22880 13.24802 2210 ft 159 kts 248°
2026-04-25 18:05 38.22441 13.23506 2000 ft 158 kts 248°
2026-04-25 18:05 38.22003 13.22212 1789 ft 158 kts 248°
2026-04-25 18:05 38.21574 13.20943 1582 ft 158 kts 248°
2026-04-25 18:06 38.21137 13.19647 1368 ft 158 kts 248°
2026-04-25 18:06 38.20706 13.18374 1158 ft 158 kts 248°
2026-04-25 18:06 38.20271 13.17085 947 ft 157 kts 248°
2026-04-25 18:06 38.19841 13.15809 737 ft 157 kts 248°
2026-04-25 18:07 38.19408 13.14527 528 ft 157 kts 249°
2026-04-25 18:07 38.18982 13.13263 321 ft 156 kts 249°
2026-04-25 18:07 38.18553 13.11990 115 ft 157 kts 249°
2026-04-25 18:07 38.18177 13.10803 77 ft 118 kts 243°
2026-04-25 18:08 38.18010 13.10362 71 ft 22 kts 259°
2026-04-25 18:08 38.18024 13.10179 64 ft 9 kts 279°
2026-04-25 18:08 38.18029 13.10136 63 ft 1 kts 276°
2026-04-25 18:08 38.18030 13.10099 62 ft 10 kts 272°
2026-04-25 18:09 38.18037 13.09985 59 ft 13 kts 279°
2026-04-25 18:09 38.18082 13.09872 54 ft 12 kts 322°
2026-04-25 18:09 38.18162 13.09825 51 ft 10 kts 338°
2026-04-25 18:09 38.18206 13.09801 49 ft 2 kts 336°
2026-04-25 18:10 38.18241 13.09822 48 ft 6 kts 67°
2026-04-25 18:10 38.18256 13.09863 48 ft 0 kts 63°
2026-04-25 18:10 38.18256 13.09865 48 ft 0 kts 66°